Location: Deer Lodge Site
(39.6809°N, 119.9392°W)
Time: 08:12:22
(UTC-07:00)

Amateur Radio Satellites - All Passes

Search period start: 18 April 2015 07:42
Search period end: 19 April 2015 07:42
Location: Deer Lodge Site, 39.6809°N, 119.9392°W

Satellite Date Start Highest point End Downlink Frequencies (MHz)
Time Altitude Azimuth
STRAND 1 18 Apr 07:44:35 07:49:27 43° 261° (W) 07:54:19 437.568
CUBESAT XI-V 18 Apr 07:47:19 07:50:42 19° 268° (W) 07:53:57 437.345
AIST 2 18 Apr 07:58:47 07:59:57 11° 322° (NW) 08:00:55 435.215
BRITE-PL 18 Apr 08:48:28 08:52:59 39° 98° (E) 08:57:54 437.365/2234.400
DOVE 4 18 Apr 08:58:21 09:02:11 23° 93° (E) 09:06:17 437.250
CUTE-I 18 Apr 09:06:33 09:09:09 13° 299° (WNW) 09:11:29 437.470
CINEMA 3 18 Apr 09:08:08 09:10:38 14° 89° (E) 09:13:26 145.822/145.860
Cubesat XI-IV 18 Apr 09:14:20 09:16:08 11° 300° (WNW) 09:17:37 437.490
Cosmos 2499 18 Apr 09:15:15 09:18:13 12° 283° (WNW) 09:20:29 435.465 / 435.565
GOMX 1 18 Apr 09:18:36 09:23:24 53° 100° (E) 09:28:30 467.674
HO-68 18 Apr 09:19:05 09:25:55 45° 99° (E) 09:32:45 435.675
O/OREOS (USA 219) 18 Apr 09:25:08 09:29:00 28° 60° (ENE) 09:32:55 437.305
COMPASS 1 18 Apr 09:28:56 09:32:41 31° 96° (E) 09:36:27 437.405
CANX-2 18 Apr 09:35:16 09:39:33 63° 100° (E) 09:43:47 2200.000
SEEDS 18 Apr 09:41:01 09:45:12 54° 99° (E) 09:49:22 437.485
CUTE 1.7 + AOD 2 18 Apr 09:45:42 09:50:00 75° 101° (E) 09:54:16 437.475
TIGRISAT 18 Apr 09:49:53 09:52:58 19° 67° (ENE) 09:56:15 435.000
UNISAT 6 18 Apr 09:50:13 09:53:24 20° 67° (ENE) 09:56:46 437.425
POPSAT HIP 1 18 Apr 09:57:16 09:57:59 10° 64° (ENE) 09:58:56 437.405
NANOSAT C BR1 18 Apr 09:57:49 09:58:38 11° 64° (ENE) 09:59:41 145.865
CUBEBUG 2 18 Apr 10:02:06 10:06:05 27° 94° (E) 10:10:10 437.445
ZACube-1 18 Apr 10:04:07 10:07:12 18° 91° (E) 10:10:26 437.345
Cosmos 2491 18 Apr 10:06:39 10:14:25 34° 70° (ENE) 10:22:21 435.465 / 435.565
PCSat 18 Apr 10:15:22 10:20:42 66° 115° (ESE) 10:26:06 145.827
AAUSAT CUBESAT 2 18 Apr 10:18:15 10:22:29 80° 284° (WNW) 10:26:40 437.432
POLYITAN 1 18 Apr 10:20:35 10:23:36 20° 68° (ENE) 10:26:45 437.675
Oscar 11 18 Apr 10:22:18 10:26:33 50° 99° (E) 10:30:47 145.826/435.025
BRITE-PL 18 Apr 10:27:34 10:31:22 23° 291° (WNW) 10:35:16 437.365/2234.400
ANTELSAT 18 Apr 10:30:35 10:34:54 53° 74° (ENE) 10:39:22 437.575/2403.000
DUCHIFAT 1 18 Apr 10:31:33 10:34:57 25° 70° (ENE) 10:38:26 145.980
DOVE 4 18 Apr 10:35:28 10:40:04 40° 288° (WNW) 10:44:50 437.250
DX 1 18 Apr 10:42:05 10:45:45 27° 95° (E) 10:49:29 434.975-435.025
QB50P1 18 Apr 10:43:11 10:46:58 34° 72° (ENE) 10:50:49 145.935-145.965
CINEMA 3 18 Apr 10:43:26 10:48:15 61° 285° (WNW) 10:53:11 145.822/145.860
UWE-3 18 Apr 10:45:24 10:50:03 63° 100° (E) 10:54:43 435.000/436.395/437.385
DELFI C3 18 Apr 10:47:05 10:51:10 75° 101° (ESE) 10:55:11 145.870
GOMX 1 18 Apr 10:57:51 11:01:14 18° 292° (WNW) 11:04:34 467.674
BUGSAT 1 18 Apr 11:03:13 11:06:58 39° 73° (ENE) 11:10:45 437.445
O/OREOS (USA 219) 18 Apr 11:04:35 11:08:22 26° 256° (WSW) 11:12:03 437.305
COMPASS 1 18 Apr 11:04:59 11:08:13 21° 291° (WNW) 11:11:21 437.405
HUMSAT D 18 Apr 11:05:29 11:09:34 39° 97° (E) 11:13:38 437.325/437.525
QB50P2 18 Apr 11:05:47 11:09:57 65° 75° (ENE) 11:14:09 145.880/145.840
HO-68 18 Apr 11:07:06 11:13:30 35° 296° (WNW) 11:19:45 435.675
CANX-2 18 Apr 11:13:20 11:15:01 12° 295° (WNW) 11:16:28 2200.000
YUBILEINY 18 Apr 11:14:27 11:22:21 40° 88° (E) 11:30:26 435.215
VELOX 1 18 Apr 11:16:19 11:20:09 29° 96° (E) 11:24:02 145.980
FUNcube-1 18 Apr 11:17:15 11:21:50 75° 284° (WNW) 11:26:25 145.935
SEEDS 18 Apr 11:18:28 11:20:36 13° 294° (WNW) 11:22:32 437.485
TIGRISAT 18 Apr 11:25:20 11:29:28 39° 263° (W) 11:33:42 435.000
UNISAT 6 18 Apr 11:25:50 11:29:57 37° 263° (W) 11:34:10 437.425
POPSAT HIP 1 18 Apr 11:29:12 11:33:22 68° 259° (WSW) 11:37:34 437.405
NANOSAT C BR1 18 Apr 11:29:49 11:33:58 67° 258° (WSW) 11:38:12 145.865
AISAT 18 Apr 11:30:30 11:34:45 43° 99° (E) 11:39:00 437.250
UKube-1 18 Apr 11:36:26 11:40:47 77° 284° (WNW) 11:45:06 .
CUBEBUG 2 18 Apr 11:38:36 11:42:46 30° 289° (WNW) 11:46:53 437.445
ZACube-1 18 Apr 11:39:26 11:43:47 42° 287° (WNW) 11:48:07 437.345
ESTCUBE 1 18 Apr 11:41:00 11:44:54 29° 96° (E) 11:48:50 437.505/2401.250
CUBEBUG 1 18 Apr 11:45:56 11:49:42 29° 96° (E) 11:53:30 437.445
POLYITAN 1 18 Apr 11:55:31 11:59:21 33° 264° (W) 12:03:10 437.675
Oscar 11 18 Apr 11:59:50 12:02:21 15° 294° (WNW) 12:04:42 145.826/435.025
PCSat 18 Apr 12:00:40 12:04:41 20° 315° (NW) 12:08:34 145.827
Cosmos 2491 18 Apr 12:03:11 12:11:38 51° 270° (W) 12:20:00 435.465 / 435.565
SPROUT 18 Apr 12:04:30 12:05:54 12° 89° (E) 12:07:33 437.525
DUCHIFAT 1 18 Apr 12:07:13 12:10:44 25° 265° (W) 12:14:13 145.980
50 SAT 18 Apr 12:08:07 12:12:08 60° 285° (WNW) 12:16:07 437.505
ANTELSAT 18 Apr 12:09:49 12:12:08 13° 271° (W) 12:14:15 437.575/2403.000
DX 1 18 Apr 12:18:19 12:21:57 26° 291° (WNW) 12:25:30 434.975-435.025
QB50P1 18 Apr 12:19:59 12:22:59 18° 268° (W) 12:25:52 145.935-145.965
UWE-3 18 Apr 12:23:39 12:26:07 14° 295° (WNW) 12:28:22 435.000/436.395/437.385
BUGSAT 1 18 Apr 12:40:18 12:42:42 15° 269° (W) 12:44:55 437.445
HUMSAT D 18 Apr 12:42:00 12:45:04 18° 292° (WNW) 12:47:59 437.325/437.525
BEESAT 2 18 Apr 12:51:20 12:53:40 15° 42° (NE) 12:56:07 435.950
VELOX 1 18 Apr 12:52:59 12:56:37 25° 291° (WNW) 13:00:11 145.980
BEESAT 3 18 Apr 12:59:59 13:03:01 20° 46° (NE) 13:06:06 437.485
AISAT 18 Apr 13:08:03 13:11:03 18° 294° (WNW) 13:13:55 437.250
SO-50 18 Apr 13:10:00 13:13:55 29° 113° (ESE) 13:18:03 436.795
YUBILEINY 18 Apr 13:10:48 13:19:09 44° 287° (WNW) 13:27:26 435.215
Cosmos 2504 18 Apr 13:17:03 13:23:18 23° 82° (E) 13:29:58 435.465 / 435.565
AIST 1 18 Apr 13:17:54 13:22:10 79° 264° (W) 13:26:25
ESTCUBE 1 18 Apr 13:17:59 13:21:41 25° 291° (WNW) 13:25:18 437.505/2401.250
Oscar 19 18 Apr 13:19:24 13:24:22 55° 73° (ENE) 13:29:26 437.125/150
Gurwin Techsat 1B 18 Apr 13:20:33 13:23:32 16° 63° (ENE) 13:26:44 435.225
CUBEBUG 1 18 Apr 13:22:27 13:25:59 24° 291° (WNW) 13:29:25 437.445
ITAMSAT 1 18 Apr 13:36:57 13:41:07 26° 67° (ENE) 13:45:24 435.822/435.867
SPROUT 18 Apr 13:38:11 13:42:26 57° 286° (WNW) 13:46:40 437.525
TISAT 1 18 Apr 13:38:41 13:42:54 72° 284° (WNW) 13:47:07 437.305
BEESAT 18 Apr 13:41:25 13:44:33 18° 92° (E) 13:47:50 436.000
SWISSCUBE 18 Apr 13:42:18 13:45:42 20° 92° (E) 13:49:14 437.505
AO-7 18 Apr 13:42:25 13:44:04 11° 46° (NE) 13:46:15 29.400- 29.500
BEESAT 2 18 Apr 14:28:10 14:32:15 63° 241° (WSW) 14:36:16 435.950
BEESAT 3 18 Apr 14:37:23 14:41:14 40° 244° (WSW) 14:45:01 437.485
AIST 2 18 Apr 14:38:58 14:43:08 53° 55° (NE) 14:47:14 435.215
ITUPSAT 1 18 Apr 14:41:49 14:46:36 75° 102° (ESE) 14:51:21 437.325
SO-50 18 Apr 14:50:08 14:54:24 33° 311° (NW) 14:58:46 436.795
JAS-2 18 Apr 14:54:56 15:00:57 26° 63° (ENE) 15:07:13 435.910
Gurwin Techsat 1B 18 Apr 14:57:43 15:03:00 68° 258° (WSW) 15:08:19 435.225
ISS 18 Apr 14:59:03 15:02:17 64° 139° (SE) 15:05:31 145.825
Oscar 19 18 Apr 15:00:47 15:04:09 17° 270° (W) 15:07:20 437.125/150
Cosmos 2504 18 Apr 15:07:11 15:16:00 75° 279° (W) 15:24:55 435.465 / 435.565
ITAMSAT 1 18 Apr 15:15:39 15:20:29 38° 263° (W) 15:25:17 435.822/435.867
BEESAT 18 Apr 15:18:07 15:22:41 45° 288° (WNW) 15:27:11 436.000
SWISSCUBE 18 Apr 15:19:19 15:23:47 41° 289° (WNW) 15:28:12 437.505
STARS 18 Apr 15:24:29 15:28:05 24° 95° (E) 15:31:45 437.465
HORYU 2 18 Apr 15:26:21 15:30:38 49° 73° (ENE) 15:35:00 437.375
AO-7 18 Apr 15:27:17 15:35:09 52° 65° (ENE) 15:43:06 29.400- 29.500
RS-15 18 Apr 15:37:14 15:47:43 59° 114° (ESE) 15:58:29 29.354- 29.394
GONETS M04 18 Apr 15:43:48 15:44:29 10° 75° (ENE) 15:46:00
KKS-1 18 Apr 15:46:12 15:50:41 69° 102° (ESE) 15:55:08 437.445
AIST 2 18 Apr 16:19:04 16:21:18 14° 250° (WSW) 16:23:21 435.215
ITUPSAT 1 18 Apr 16:21:59 16:23:57 12° 297° (WNW) 16:25:40 437.325
ISS 18 Apr 16:36:22 16:38:55 20° 337° (NNW) 16:41:25 145.825
JAS-2 18 Apr 16:37:39 16:45:23 71° 259° (W) 16:53:14 435.910
MOZHAYETS 4 18 Apr 16:52:32 16:56:06 22° 93° (E) 16:59:45
STARS 18 Apr 17:00:41 17:04:34 29° 290° (WNW) 17:08:23 437.465
HORYU 2 18 Apr 17:05:01 17:07:38 15° 269° (W) 17:10:04 437.375
Cosmos 2504 18 Apr 17:06:13 17:11:19 15° 302° (WNW) 17:15:49 435.465 / 435.565
CUTE-I 18 Apr 17:08:12 17:11:13 16° 63° (ENE) 17:14:27 437.470
Cubesat XI-IV 18 Apr 17:14:50 17:18:20 19° 64° (ENE) 17:22:01 437.490
AO-7 18 Apr 17:20:47 17:28:14 35° 264° (W) 17:35:33 29.400- 29.500
KKS-1 18 Apr 17:25:03 17:26:49 12° 296° (WNW) 17:28:20 437.445
GONETS M04 18 Apr 17:31:14 17:39:48 66° 93° (E) 17:48:32
RS-15 18 Apr 17:50:20 18:00:36 43° 318° (NW) 18:11:00 29.354- 29.394
DANDE 18 Apr 17:56:48 17:57:40 11° 86° (E) 17:58:44 436.750
Cosmos 2499 18 Apr 18:03:07 18:08:06 17° 80° (E) 18:13:35 435.465 / 435.565
CUSAT 1 18 Apr 18:06:56 18:09:28 26° 90° (E) 18:12:35 437.405
M-CUBED/EXP-1 PRIME 18 Apr 18:08:21 18:10:29 14° 93° (E) 18:12:45 437.505
CUBESAT XI-V 18 Apr 18:09:17 18:09:46 10° 87° (E) 18:10:35 437.345
ISS 18 Apr 18:15:39 18:16:16 10° 357° (N) 18:16:52 145.825
JAS-2 18 Apr 18:28:42 18:31:52 12° 278° (W) 18:34:24 435.910
MOZHAYETS 4 18 Apr 18:29:16 18:33:26 33° 289° (WNW) 18:37:31
CUTE-I 18 Apr 18:45:29 18:50:48 68° 258° (WSW) 18:56:08 437.470
PRISM 18 Apr 18:50:13 18:52:53 17° 92° (E) 18:55:40 437.425
Cubesat XI-IV 18 Apr 18:52:46 18:58:02 58° 259° (W) 19:03:18 437.490
AUBIESAT-1 18 Apr 18:56:37 19:00:48 42° 102° (ESE) 19:04:39 437.475
PCSat 18 Apr 19:04:10 19:09:21 44° 55° (NE) 19:14:31 145.827
VERMONT LUNAR 18 Apr 19:04:24 19:06:03 13° 147° (SSE) 19:07:47 437.305
GONETS M04 18 Apr 19:30:15 19:37:28 27° 294° (WNW) 19:44:28
DANDE 18 Apr 19:38:23 19:40:37 19° 292° (WNW) 19:43:08 436.750
M-CUBED/EXP-1 PRIME 18 Apr 19:41:27 19:45:50 51° 292° (WNW) 19:49:50 437.505
CUBESAT XI-V 18 Apr 19:43:13 19:47:49 71° 284° (WNW) 19:52:24 437.345
HO-68 18 Apr 19:47:12 19:53:18 32° 63° (ENE) 19:59:32 435.675
Cosmos 2499 18 Apr 19:51:21 20:00:14 88° 95° (E) 20:09:05 435.465 / 435.565
CUSAT 1 18 Apr 19:51:31 19:52:39 11° 299° (WNW) 19:53:40 437.405
ISS 18 Apr 19:51:43 19:53:43 15° 17° (NNE) 19:55:45 145.825
PHONESAT 2.4 18 Apr 19:53:40 19:55:08 12° 146° (SE) 19:56:43 2401.200-2431.200
STRAND 1 18 Apr 19:55:35 20:00:41 68° 102° (ESE) 20:05:45 437.568
BRITE-PL 18 Apr 19:59:39 20:03:25 35° 72° (ENE) 20:07:15 437.365/2234.400
DOVE 4 18 Apr 20:04:41 20:07:21 17° 67° (ENE) 20:10:13 437.250
RS-15 18 Apr 20:09:41 20:17:10 19° 350° (N) 20:24:41 29.354- 29.394
CINEMA 3 18 Apr 20:11:41 20:12:13 10° 63° (ENE) 20:13:00 145.822/145.860
COMPASS 1 18 Apr 20:20:03 20:23:07 20° 68° (ENE) 20:26:19 437.405
PRISM 18 Apr 20:24:45 20:28:31 35° 289° (WNW) 20:32:14 437.425
GOMX 1 18 Apr 20:26:51 20:30:48 45° 73° (ENE) 20:34:52 467.674
CANX-2 18 Apr 20:27:23 20:31:23 40° 73° (ENE) 20:35:27 2200.000
AUBIESAT-1 18 Apr 20:32:12 20:35:15 18° 300° (WNW) 20:38:02 437.475
SEEDS 18 Apr 20:32:23 20:36:13 34° 72° (ENE) 20:40:07 437.485
CUTE 1.7 + AOD 2 18 Apr 20:37:38 20:41:44 47° 74° (ENE) 20:45:54 437.475
VERMONT LUNAR 18 Apr 20:39:52 20:43:10 53° 161° (SSE) 20:46:29 437.305
PCSat 18 Apr 20:48:08 20:52:33 25° 252° (WSW) 20:56:49 145.827
CUBEBUG 2 18 Apr 21:00:32 21:03:31 19° 67° (ENE) 21:06:42 437.445
ZACube-1 18 Apr 21:00:52 21:02:41 13° 65° (ENE) 21:04:43 437.345
AAUSAT CUBESAT 2 18 Apr 21:08:01 21:12:10 61° 75° (ENE) 21:16:21 437.432
Oscar 11 18 Apr 21:16:20 21:20:16 35° 72° (ENE) 21:24:16 145.826/435.025
YUBILEINY 18 Apr 21:26:25 21:31:50 18° 61° (ENE) 21:37:42 435.215
ISS 18 Apr 21:27:22 21:30:36 66° 36° (NE) 21:33:50 145.825
PHONESAT 2.4 18 Apr 21:29:28 21:32:56 49° 160° (SSE) 21:36:25 2401.200-2431.200
HO-68 18 Apr 21:33:51 21:40:48 50° 260° (W) 21:47:44 435.675
DELFI C3 18 Apr 21:33:51 21:37:39 40° 73° (ENE) 21:41:31 145.870
STRAND 1 18 Apr 21:36:29 21:39:23 15° 297° (WNW) 21:42:03 437.568
DX 1 18 Apr 21:37:22 21:40:40 22° 68° (ENE) 21:44:04 434.975-435.025
BRITE-PL 18 Apr 21:39:29 21:42:12 16° 269° (W) 21:44:45 437.365/2234.400
DOVE 4 18 Apr 21:41:02 21:44:53 37° 263° (W) 21:48:50 437.250
SO-50 18 Apr 21:41:52 21:45:57 25° 46° (NE) 21:50:04 436.795
UWE-3 18 Apr 21:41:57 21:46:00 44° 73° (ENE) 21:50:11 435.000/436.395/437.385
CINEMA 3 18 Apr 21:44:39 21:48:50 71° 258° (WSW) 21:53:12 145.822/145.860
Cosmos 2499 18 Apr 21:48:20 21:54:41 20° 298° (WNW) 22:00:35 435.465 / 435.565
COMPASS 1 18 Apr 21:54:48 21:58:38 32° 264° (W) 22:02:28 437.405
HUMSAT D 18 Apr 21:57:01 22:00:24 25° 70° (ENE) 22:03:55 437.325/437.525
CANX-2 18 Apr 22:04:42 22:07:32 17° 269° (W) 22:10:15 2200.000
GOMX 1 18 Apr 22:07:20 22:09:22 13° 271° (W) 22:11:11 467.674
SEEDS 18 Apr 22:09:00 22:12:08 19° 268° (W) 22:15:11 437.485
FUNcube-1 18 Apr 22:12:07 22:16:21 77° 76° (ENE) 22:20:43 145.935
VELOX 1 18 Apr 22:13:35 22:17:05 24° 69° (ENE) 22:20:41 145.980
CUTE 1.7 + AOD 2 18 Apr 22:15:36 22:17:59 14° 270° (W) 22:20:11 437.475
VERMONT LUNAR 18 Apr 22:17:18 22:20:42 76° 357° (N) 22:24:05 437.305
ANTELSAT 18 Apr 22:25:15 22:27:18 13° 88° (E) 22:29:38 437.575/2403.000
RS-15 18 Apr 22:26:21 22:35:06 25° 25° (NNE) 22:44:24 29.354- 29.394
AISAT 18 Apr 22:27:45 22:31:44 35° 71° (ENE) 22:35:46 437.250
UKube-1 18 Apr 22:30:17 22:34:36 81° 76° (ENE) 22:38:57 .
ZACube-1 18 Apr 22:34:24 22:38:35 57° 260° (W) 22:42:54 437.345
CUBEBUG 2 18 Apr 22:36:04 22:39:59 35° 264° (W) 22:44:01 437.445
ESTCUBE 1 18 Apr 22:40:08 22:43:49 26° 69° (ENE) 22:47:36 437.505/2401.250
CUBEBUG 1 18 Apr 22:41:49 22:45:10 23° 69° (ENE) 22:48:35 437.445
AAUSAT CUBESAT 2 18 Apr 22:47:19 22:48:17 10° 272° (W) 22:48:58 437.432
50 SAT 18 Apr 22:52:33 22:56:29 68° 76° (ENE) 23:00:29 437.505
Oscar 11 18 Apr 22:53:23 22:56:35 19° 268° (W) 22:59:42 145.826/435.025
QB50P2 18 Apr 22:54:15 22:55:35 11° 89° (E) 22:57:11 145.880/145.840
ISS 18 Apr 23:05:13 23:06:38 12° 230° (SW) 23:07:55 145.825
Cosmos 2491 18 Apr 23:06:55 23:14:43 40° 88° (E) 23:22:43 435.465 / 435.565
PHONESAT 2.4 18 Apr 23:07:35 23:11:10 78° 355° (N) 23:14:45 2401.200-2431.200
DELFI C3 18 Apr 23:10:33 23:13:03 15° 269° (W) 23:15:22 145.870
DX 1 18 Apr 23:12:53 23:16:47 31° 263° (W) 23:20:38 434.975-435.025
POPSAT HIP 1 18 Apr 23:15:59 23:19:08 20° 93° (E) 23:22:25 437.405
NANOSAT C BR1 18 Apr 23:16:20 23:19:30 20° 93° (E) 23:22:46 145.865
TIGRISAT 18 Apr 23:17:30 23:22:02 46° 98° (E) 23:26:34 435.000
UNISAT 6 18 Apr 23:18:12 23:22:48 48° 99° (E) 23:27:20 437.425
UWE-3 18 Apr 23:20:18 23:22:51 15° 270° (W) 23:25:17 435.000/436.395/437.385
YUBILEINY 18 Apr 23:21:19 23:30:09 90° 152° (SSE) 23:38:53 435.215
SO-50 18 Apr 23:21:59 23:26:43 45° 244° (WSW) 23:31:22 436.795
HUMSAT D 18 Apr 23:32:35 23:36:07 26° 266° (W) 23:39:38 437.325/437.525
O/OREOS (USA 219) 18 Apr 23:36:14 23:40:27 37° 106° (ESE) 23:44:42 437.305
POLYITAN 1 18 Apr 23:41:25 23:45:29 40° 98° (E) 23:49:35 437.675
VELOX 1 18 Apr 23:49:42 23:53:34 29° 264° (W) 23:57:24 145.980
DUCHIFAT 1 18 Apr 23:51:58 23:56:08 51° 100° (E) 00:00:19 145.980
VERMONT LUNAR 18 Apr 23:54:55 23:58:18 77° 194° (SSW) 00:01:39 437.305
ANTELSAT 18 Apr 23:59:54 00:04:35 61° 286° (WNW) 00:09:13 437.575/2403.000
QB50P1 19 Apr 00:04:21 00:08:39 75° 102° (ESE) 00:12:55 145.935-145.965
AISAT 19 Apr 00:05:12 00:08:28 20° 267° (W) 00:11:38 437.250
ESTCUBE 1 19 Apr 00:16:39 00:20:37 29° 264° (W) 00:24:33 437.505/2401.250
CUBEBUG 1 19 Apr 00:17:32 00:21:24 30° 264° (W) 00:25:14 437.445
BUGSAT 1 19 Apr 00:21:09 00:25:16 80° 100° (E) 00:29:25 437.445
QB50P2 19 Apr 00:27:42 00:31:56 57° 286° (WNW) 00:36:08 145.880/145.840
TISAT 1 19 Apr 00:29:53 00:34:03 75° 77° (ENE) 00:38:14 437.305
SPROUT 19 Apr 00:31:15 00:35:32 85° 261° (W) 00:39:49 437.525
RS-15 19 Apr 00:38:49 00:50:18 68° 53° (NE) 01:02:18 29.354- 29.394
PHONESAT 2.4 19 Apr 00:45:56 00:49:31 82° 194° (SSW) 00:53:04 2401.200-2431.200
BEESAT 19 Apr 00:47:22 00:50:45 20° 66° (ENE) 00:54:15 436.000
SWISSCUBE 19 Apr 00:48:19 00:51:54 22° 67° (ENE) 00:55:37 437.505
POPSAT HIP 1 19 Apr 00:51:16 00:55:07 32° 289° (WNW) 00:58:55 437.405
NANOSAT C BR1 19 Apr 00:51:37 00:55:26 32° 289° (WNW) 00:59:13 145.865
TIGRISAT 19 Apr 00:55:09 00:58:28 19° 294° (WNW) 01:01:38 435.000
UNISAT 6 19 Apr 00:56:00 00:59:13 18° 294° (WNW) 01:02:17 437.425
Cosmos 2504 19 Apr 01:02:24 01:10:00 40° 72° (ENE) 01:17:11 435.465 / 435.565
Cosmos 2491 19 Apr 01:03:21 01:11:34 43° 287° (WNW) 01:19:45 435.465 / 435.565
O/OREOS (USA 219) 19 Apr 01:16:27 01:20:02 22° 303° (WNW) 01:23:32 437.305
POLYITAN 1 19 Apr 01:18:13 01:21:08 17° 293° (WNW) 01:23:55 437.675
YUBILEINY 19 Apr 01:20:36 01:25:53 17° 281° (W) 01:30:37 435.215
DUCHIFAT 1 19 Apr 01:29:17 01:31:35 14° 294° (WNW) 01:33:42 145.980
Oscar 19 19 Apr 01:32:35 01:36:22 21° 92° (E) 01:40:18 437.125/150
VERMONT LUNAR 19 Apr 01:32:53 01:35:33 22° 209° (SSW) 01:38:10 437.305
AIST 1 19 Apr 01:46:14 01:50:32 64° 95° (E) 01:54:48
ITUPSAT 1 19 Apr 01:47:40 01:52:29 79° 74° (ENE) 01:57:18 437.325
STARS 19 Apr 02:21:14 02:24:23 20° 67° (ENE) 02:27:39 437.465
BEESAT 19 Apr 02:23:45 02:28:19 43° 262° (W) 02:32:53 436.000
PHONESAT 2.4 19 Apr 02:24:32 02:27:32 25° 208° (SSW) 02:30:30 2401.200-2431.200
SWISSCUBE 19 Apr 02:25:04 02:29:34 39° 262° (W) 02:34:02 437.505
KKS-1 19 Apr 02:43:30 02:47:48 55° 74° (ENE) 02:52:10 437.445
RS-15 19 Apr 02:52:00 03:02:12 35° 252° (WSW) 03:12:25 29.354- 29.394
Cosmos 2504 19 Apr 02:55:58 03:03:29 40° 273° (W) 03:10:24 435.465 / 435.565
Oscar 19 19 Apr 03:11:01 03:15:59 46° 289° (WNW) 03:20:55 437.125/150
Gurwin Techsat 1B 19 Apr 03:14:48 03:19:59 52° 99° (E) 03:25:09 435.225
AIST 1 19 Apr 03:27:48 03:28:44 10° 293° (WNW) 03:29:23
ITAMSAT 1 19 Apr 03:28:47 03:34:00 82° 105° (ESE) 03:39:11 435.822/435.867
ITUPSAT 1 19 Apr 03:30:35 03:31:03 10° 273° (W) 03:31:09 437.325
AO-7 19 Apr 03:31:52 03:36:03 15° 87° (E) 03:40:50 29.400- 29.500
GONETS M04 19 Apr 03:42:58 03:50:29 31° 68° (ENE) 03:58:12
JAS-2 19 Apr 03:51:22 03:55:30 18° 86° (E) 03:59:38 435.910
MOZHAYETS 4 19 Apr 03:54:04 03:57:25 21° 68° (ENE) 04:00:55
STARS 19 Apr 03:56:36 04:00:39 35° 263° (W) 04:04:40 437.465
BEESAT 2 19 Apr 04:21:39 04:25:09 29° 114° (ESE) 04:28:47 435.950
KKS-1 19 Apr 04:22:48 04:24:53 13° 271° (W) 04:26:43 437.445
BEESAT 3 19 Apr 04:29:27 04:33:17 42° 116° (ESE) 04:37:12 437.485
DANDE 19 Apr 04:32:27 04:38:02 28° 72° (ENE) 04:44:47 436.750
AIST 2 19 Apr 04:38:06 04:40:14 14° 110° (ESE) 04:42:35 435.215
CUSAT 1 19 Apr 04:41:09 04:47:35 41° 74° (ENE) 04:55:10 437.405
HORYU 2 19 Apr 04:54:47 04:59:19 72° 284° (WNW) 05:03:47 437.375
M-CUBED/EXP-1 PRIME 19 Apr 04:54:51 04:58:14 20° 61° (ENE) 05:01:50 437.505
Gurwin Techsat 1B 19 Apr 04:55:44 04:59:37 20° 295° (WNW) 05:03:20 435.225
ITAMSAT 1 19 Apr 05:10:33 05:12:53 13° 299° (WNW) 05:14:58 435.822/435.867
CUBESAT XI-V 19 Apr 05:12:33 05:13:19 10° 63° (ENE) 05:14:22 437.345
AO-7 19 Apr 05:21:50 05:30:12 84° 107° (ESE) 05:38:34 29.400- 29.500
MOZHAYETS 4 19 Apr 05:30:03 05:34:25 39° 263° (W) 05:38:47
JAS-2 19 Apr 05:34:44 05:41:30 67° 287° (WNW) 05:47:23 435.910
STRAND 1 19 Apr 05:35:54 05:37:11 11° 61° (ENE) 05:38:45 437.568
GONETS M04 19 Apr 05:39:15 05:47:53 57° 269° (W) 05:56:22
PRISM 19 Apr 05:40:51 05:42:40 13° 65° (ENE) 05:44:40 437.425
AUBIESAT-1 19 Apr 05:42:47 05:47:19 52° 69° (ENE) 05:52:01 437.475
Cosmos 2499 19 Apr 05:45:25 05:52:07 29° 68° (ENE) 05:58:35 435.465 / 435.565
BEESAT 2 19 Apr 05:59:43 06:03:16 27° 311° (NW) 06:06:49 435.950
BEESAT 3 19 Apr 06:08:28 06:11:32 20° 314° (NW) 06:14:32 437.485
AIST 2 19 Apr 06:14:15 06:18:26 54° 305° (NW) 06:22:40 435.215
DANDE 19 Apr 06:14:54 06:21:31 58° 264° (W) 06:29:32 436.750
CUSAT 1 19 Apr 06:23:49 06:30:23 42° 267° (W) 06:37:49 437.405
M-CUBED/EXP-1 PRIME 19 Apr 06:28:14 06:32:45 48° 257° (WSW) 06:37:26 437.505
CUBESAT XI-V 19 Apr 06:45:31 06:50:11 82° 257° (WSW) 06:54:51 437.345
CUTE-I 19 Apr 07:03:29 07:08:39 51° 99° (E) 07:13:50 437.470
STRAND 1 19 Apr 07:10:35 07:15:43 89° 77° (ENE) 07:20:52 437.568
Cubesat XI-IV 19 Apr 07:10:48 07:16:04 61° 101° (E) 07:21:20 437.490
PRISM 19 Apr 07:13:37 07:17:44 54° 260° (W) 07:21:51 437.425
AO-7 19 Apr 07:16:02 07:22:11 23° 305° (NW) 07:28:02 29.400- 29.500
AUBIESAT-1 19 Apr 07:19:19 07:22:26 17° 265° (W) 07:25:27 437.475
JAS-2 19 Apr 07:23:08 07:25:12 11° 307° (NW) 07:26:50 435.910
